Theta_e
316 315 313 312 312 311 310 309 308 307 302 300 301 301 300 297 297 297 304 308 307 303 304 309 309 309 308 311 314 312 321 320 321 327 329 329 332 331 330 331 334 332 334 336 330 329 334 333 335 343 338 333 336 334
314 315 314 313 312 311 310 309 308 307 303 301 301 301 300 298 297 296 305 307 309 304 303 308 309 310 309 310 308 310 316 320 320 321 322 325 330 326 328 333 328 331 329 332 336 336 331 329 329 329 329 329 330 333
313 315 315 313 312 311 310 309 309 307 303 301 301 301 301 298 297 296 299 307 309 306 307 308 308 311 311 311 313 311 315 316 317 316 318 321 326 325 328 329 330 330 328 332 331 333 330 329 327 326 326 327 327 328
312 314 314 314 312 311 310 310 309 307 304 301 301 301 301 299 297 297 297 303 308 306 311 310 313 313 313 313 314 315 313 313 312 314 317 319 322 322 325 324 327 325 327 329 330 329 327 329 326 326 327 328 328 328
310 313 314 314 313 311 310 310 309 308 305 301 300 301 302 300 297 297 298 306 306 308 312 311 312 315 314 314 313 314 313 310 310 312 315 316 316 319 318 323 329 324 326 322 323 324 323 324 325 327 328 330 329 325
308 309 313 314 313 311 310 309 309 308 306 300 300 301 302 300 298 302 307 307 305 307 308 313 310 311 312 314 313 311 309 309 309 310 310 309 311 315 319 322 324 325 324 321 325 323 324 325 326 329 331 331 325 326
305 309 311 313 312 311 310 309 308 308 305 300 300 301 302 300 298 301 307 309 306 305 310 311 310 309 313 311 309 308 309 308 307 306 309 309 309 315 315 318 317 327 326 326 322 325 324 323 324 328 331 331 326 327
304 307 309 312 311 310 309 309 308 307 302 300 300 302 302 300 297 300 304 303 303 307 306 310 311 311 312 310 311 305 309 308 309 308 307 308 307 311 315 313 315 326 325 325 324 323 320 320 321 321 327 332 332 329
304 304 308 310 310 309 309 308 308 307 300 300 301 302 298 298 300 308 309 307 307 310 310 308 311 315 309 308 308 309 307 312 308 311 310 309 308 320 317 316 316 320 326 325 323 323 321 319 321 325 328 327 327 328
303 304 306 309 309 309 308 308 307 303 300 301 302 300 302 305 308 308 303 305 305 304 305 309 306 312 310 311 310 313 309 311 314 312 309 310 320 318 317 316 314 315 316 317 320 321 321 324 324 324 326 325 325 324
300 304 304 308 309 308 308 307 303 300 301 301 300 302 308 307 305 307 310 308 306 309 305 305 306 309 306 313 312 311 314 311 314 313 316 318 321 319 318 317 315 315 318 316 318 317 320 323 324 323 324 322 323 323
302 303 304 305 309 308 307 305 300 301 301 299 303 304 305 309 310 312 312 310 310 311 307 306 305 303 305 310 315 313 315 314 316 313 317 321 318 316 315 315 315 315 320 321 321 320 323 324 323 321 321 321 319 321
303 303 304 305 308 307 308 301 301 301 300 303 303 308 307 307 308 313 313 313 310 309 309 307 307 308 308 308 311 312 316 315 314 317 318 317 316 315 313 315 317 319 320 322 323 322 322 323 323 322 320 321 323 323
302 305 305 306 308 307 304 301 302 301 303 306 309 307 309 310 310 310 311 309 308 308 308 308 308 309 308 311 311 314 314 314 318 321 321 316 316 316 314 315 317 318 319 320 320 322 321 322 322 322 322 322 322 321
304 306 307 307 306 305 302 302 301 301 302 309 310 309 309 308 306 305 304 307 310 307 311 311 311 309 311 314 312 314 318 319 319 319 316 315 316 315 315 317 318 318 318 318 318 320 321 321 321 321 321 321 320 319
303 304 304 304 303 303 302 301 301 302 304 309 310 311 307 307 307 306 310 311 309 310 311 311 314 315 316 315 316 317 318 319 317 315 313 314 313 313 315 316 318 320 318 317 318 319 320 320 319 319 320 320 318 317
300 302 302 302 302 302 302 302 304 306 308 310 310 307 306 309 313 312 309 312 310 312 315 313 317 318 315 317 320 318 318 315 313 312 310 311 311 314 314 315 319 318 318 319 318 320 320 320 318 318 317 317 317 317
301 301 301 301 302 302 303 302 304 307 309 306 309 309 310 311 311 311 310 310 313 313 313 318 313 317 318 320 319 315 312 310 309 310 309 310 313 316 317 316 317 317 318 319 319 319 318 317 316 316 317 317 317 318
300 300 300 301 302 303 303 304 303 309 309 307 307 308 309 310 308 308 308 309 311 311 312 313 317 317 315 312 315 313 312 311 312 312 310 312 314 317 317 316 317 317 319 318 318 317 317 317 316 318 318 316 316 317
300 300 303 303 302 303 307 306 305 307 310 310 309 309 310 309 308 308 308 309 309 309 312 314 315 314 312 311 311 311 312 310 310 313 313 313 316 316 315 316 316 316 317 318 318 318 316 316 316 317 316 316 317 316
301 301 302 302 303 303 306 306 306 306 308 310 309 309 310 307 307 309 309 306 310 310 315 312 313 310 312 313 314 313 312 314 312 312 312 312 314 315 315 316 317 317 316 316 315 315 317 316 316 318 318 317 316 316
302 303 303 303 305 307 307 307 307 307 310 311 312 310 310 310 310 310 307 309 311 310 312 312 310 309 312 314 315 316 317 315 314 312 314 314 311 312 313 316 317 316 316 315 316 316 316 317 317 316 316 316 316 315
304 305 306 306 307 305 306 308 310 310 313 312 311 313 311 311 309 307 310 308 308 308 312 312 313 314 314 317 317 316 316 315 312 313 313 314 315 317 317 317 317 316 313 314 316 317 316 315 315 314 315 315 315 316
305 305 306 307 307 308 308 308 306 309 310 312 313 315 313 311 309 310 312 309 308 312 313 313 314 312 313 314 312 314 316 316 315 315 316 315 314 316 317 317 317 316 315 312 313 313 313 313 313 313 314 314 313 314
299 300 304 303 307 309 308 308 308 310 312 312 314 313 313 309 312 311 312 310 311 315 312 313 313 310 312 312 312 315 317 317 314 312 316 316 317 316 316 316 317 316 315 315 315 315 315 315 315 315 313 313 314 312
303 307 304 308 305 307 307 310 310 310 313 315 314 312 310 312 313 310 312 312 312 311 311 311 311 311 311 313 311 312 316 316 317 315 316 317 317 316 314 314 313 316 316 316 316 315 316 314 313 313 313 313 313 313
306 311 309 308 309 308 307 308 310 312 315 315 313 312 313 314 315 313 311 311 310 315 317 316 315 313 312 315 316 317 316 316 317 317 316 316 317 316 316 315 313 315 314 314 314 314 314 314 314 313 313 314 313 313
306 308 310 309 310 309 312 312 314 315 316 314 310 313 315 315 314 311 310 316 316 317 317 317 317 317 316 316 316 317 317 317 317 317 317 317 316 317 316 315 315 315 314 314 314 314 314 314 314 314 314 314 314 313
307 306 306 308 307 308 310 312 313 312 311 310 313 314 313 310 311 312 315 316 317 317 316 315 316 317 316 317 317 317 317 317 317 316 317 315 313 315 316 316 315 315 314 314 313 312 312 311 311 311 312 313 313 313
308 305 308 310 309 310 313 310 312 310 309 310 309 308 309 311 316 316 316 316 315 315 315 315 316 316 315 315 315 315 315 316 317 317 316 314 315 315 315 315 315 315 315 315 314 311 311 311 311 312 311 312 313 314
307 308 309 308 309 308 309 310 313 312 311 311 310 311 311 310 315 316 315 315 314 316 316 316 315 316 315 315 316 317 317 316 316 316 316 316 315 315 316 315 315 315 315 315 315 313 310 311 311 312 313 313 313 313
310 312 312 313 314 312 311 313 313 314 314 316 316 315 316 316 317 316 316 317 317 316 317 316 316 315 316 314 314 316 317 317 317 316 316 316 315 313 314 314 314 314 314 314 315 315 314 314 314 313 313 313 313 312
312 313 313 314 317 317 316 317 318 318 318 318 317 316 316 317 318 314 315 315 316 317 317 317 317 317 317 316 316 316 316 317 316 316 316 315 311 310 310 310 311 312 314 314 314 314 314 313 314 314 313 313 311 311
Wind_Speed
11 13 18 23 25 24 24 24 21 18 14 12 9 8 9 10 12 13 6 3 2 2 6 3 4 4 3 2 2 3 2 4 4 4 2 1 1 1 2 2 1 3 2 2 1 2 1 14 3 6 5 5 5 4
12 14 19 23 26 25 25 23 22 20 16 13 10 8 8 9 10 11 4 3 8 4 5 10 19 17 10 4 4 3 3 2 3 4 1 1 2 2 2 1 3 3 2 4 2 4 3 4 2 3 3 6 5 3
11 13 18 23 27 27 27 25 22 21 17 14 11 8 8 8 9 10 8 9 4 2 5 4 4 2 4 6 1 3 2 3 1 3 3 1 2 3 2 2 2 4 1 4 2 2 4 6 4 4 5 6 9 9
8 12 16 21 26 29 28 26 23 22 19 14 11 8 7 8 8 10 7 5 3 1 1 5 6 4 4 6 1 5 5 4 4 3 2 2 1 2 2 2 3 3 2 3 1 1 3 6 5 4 8 8 7 6
9 11 14 19 25 30 30 28 25 23 20 16 12 8 7 9 9 11 11 5 4 2 2 4 15 3 6 6 5 5 6 3 3 2 2 1 1 2 1 1 2 1 5 3 4 4 3 4 1 2 4 7 2 4
11 10 15 17 23 30 31 29 25 24 21 16 11 8 8 9 9 5 2 7 0 4 1 2 5 3 4 5 5 4 3 3 3 3 1 2 2 3 3 1 3 2 2 5 4 5 5 5 5 3 3 1 2 4
12 11 11 14 19 30 33 29 25 24 20 14 10 8 8 9 9 5 4 4 2 1 2 3 4 4 2 4 3 2 3 2 3 1 0 1 2 3 2 2 5 6 6 4 2 5 2 4 4 3 4 4 5 6
11 11 10 12 18 30 32 29 26 24 18 12 8 8 10 10 11 9 5 7 8 2 1 1 3 3 1 1 2 2 2 3 3 1 1 1 2 2 1 5 5 4 1 1 6 6 2 3 5 6 6 5 8 6
10 10 9 9 19 31 31 27 26 22 17 11 7 8 6 4 3 3 4 4 3 1 3 1 3 3 3 2 0 3 2 1 2 1 2 3 3 3 4 7 8 5 4 3 7 6 8 6 6 6 4 6 5 6
11 8 8 9 22 33 31 28 26 22 14 9 6 3 3 5 5 9 3 2 3 2 2 2 1 2 3 2 1 2 2 1 1 2 2 4 0 3 5 6 7 5 3 3 5 2 3 5 1 3 3 1 2 4
13 12 8 12 26 32 28 28 26 22 13 6 5 3 1 9 3 2 1 2 1 1 2 3 4 1 1 3 3 1 3 1 2 4 3 2 1 3 4 7 5 5 4 5 2 1 0 5 4 3 0 6 5 6
15 15 13 16 28 34 32 31 28 22 8 7 5 1 2 2 2 3 3 1 3 5 3 4 5 5 2 2 3 2 3 2 2 0 3 1 3 3 4 6 7 9 10 8 10 6 8 8 7 5 3 6 5 5
15 17 20 26 33 38 33 33 29 17 9 2 2 3 3 1 2 6 6 3 2 3 4 3 2 3 1 3 3 3 3 3 1 3 2 3 2 4 4 4 6 7 9 10 9 12 12 10 7 7 7 5 7 11
17 14 22 32 42 39 39 36 26 13 4 3 5 4 4 4 4 4 4 4 5 3 4 3 2 3 0 3 2 3 2 2 1 2 3 2 3 3 3 4 3 6 5 5 6 8 9 9 10 10 11 11 11 11
9 22 33 42 39 41 40 31 16 5 0 2 2 4 4 3 1 3 3 2 1 3 3 3 4 3 3 3 2 3 2 1 1 2 2 3 2 1 2 3 4 5 3 4 4 3 3 4 7 9 10 13 14 12
26 31 34 39 38 36 31 23 8 2 2 2 2 1 1 2 2 1 2 1 1 3 2 4 4 4 2 2 2 1 4 3 2 2 3 2 2 2 2 1 3 5 5 5 6 4 3 5 5 7 10 12 12 14
11 7 33 35 34 29 25 13 2 2 2 3 2 2 2 2 2 2 2 2 1 4 3 3 3 0 2 3 2 2 4 3 2 2 2 4 3 2 3 5 2 3 5 4 4 3 1 6 6 7 6 6 10 11
25 24 21 24 24 23 12 2 2 1 2 2 1 3 1 2 3 1 1 2 4 3 3 2 4 3 3 3 2 2 1 2 2 2 3 3 4 3 2 1 3 4 4 3 1 2 4 5 7 5 4 6 8 10
27 28 27 27 21 6 3 1 2 1 3 1 3 2 3 2 1 1 1 4 4 4 5 3 4 2 2 3 3 2 2 2 1 2 3 7 5 3 2 2 4 4 1 1 2 3 2 2 1 4 5 5 6 5
27 34 28 10 2 1 3 2 1 1 3 1 2 3 2 2 1 2 4 4 3 3 4 2 3 3 4 2 3 3 2 2 2 1 1 1 4 6 2 1 2 4 2 1 2 3 2 2 4 3 3 4 3 4
15 16 15 6 2 5 3 3 0 1 2 3 3 3 2 3 4 4 3 3 4 1 1 2 2 1 1 1 2 4 3 2 0 3 3 2 4 5 3 3 2 1 1 1 2 1 2 2 1 3 3 2 2 4
0 2 4 5 2 1 3 4 1 2 3 2 3 3 3 3 2 2 1 4 1 2 3 4 2 3 2 1 2 5 2 2 2 4 5 5 2 1 2 3 2 2 1 1 5 6 5 5 5 4 5 3 1 2
3 2 2 4 3 5 2 4 4 5 3 3 3 3 3 2 1 2 2 1 3 2 1 2 3 2 1 1 1 1 1 2 2 5 5 4 3 2 2 2 3 4 3 3 5 7 7 6 7 5 4 2 4 7
6 4 4 3 4 2 2 4 3 3 3 3 2 2 0 1 2 3 0 2 3 2 2 2 5 3 3 2 1 3 4 2 2 2 4 5 2 3 3 4 4 2 3 8 9 8 8 8 8 8 10 12 12 12
5 6 4 4 3 3 4 3 4 3 2 1 2 1 2 2 2 0 1 3 2 1 1 2 2 3 4 2 2 4 3 4 5 4 6 8 4 3 4 3 3 4 6 5 6 6 7 7 8 8 8 5 5 5
5 5 4 3 3 3 2 2 3 2 1 1 2 2 1 2 2 2 2 2 0 1 3 4 3 1 2 4 2 3 3 5 3 2 4 4 4 3 3 1 2 5 8 10 9 8 7 6 7 9 8 7 9 8
4 3 2 2 2 2 0 1 1 1 2 4 2 2 2 2 1 2 2 2 1 2 2 4 6 6 6 6 6 4 7 7 2 3 2 6 7 7 10 7 9 12 10 11 9 9 8 9 8 6 6 9 6 2
0 1 2 2 2 1 1 2 3 1 2 3 1 3 2 2 3 2 3 1 1 3 3 1 1 2 3 6 7 8 5 2 2 4 6 6 6 8 10 12 11 14 12 11 11 11 11 13 15 15 12 8 10 8
3 4 2 3 1 2 2 1 2 1 1 1 2 1 0 2 1 2 3 3 2 4 3 1 2 3 4 3 5 4 3 2 3 3 3 3 5 8 6 5 8 13 13 14 11 10 9 6 6 7 7 7 9 7
2 2 2 3 2 2 1 1 0 2 1 1 1 1 2 2 1 1 3 4 4 4 3 4 5 3 3 1 1 2 5 9 12 12 4 4 7 5 7 12 11 14 16 15 17 15 14 13 12 11 11 10 9 8
2 3 2 1 1 2 2 2 2 2 2 2 2 2 1 2 3 3 4 4 2 2 2 2 2 6 8 5 3 3 8 6 4 9 7 9 9 11 10 9 8 12 18 20 18 19 20 21 20 16 15 14 12 9
0 0 0 1 2 2 1 1 1 1 2 2 2 2 2 2 2 2 5 3 0 4 2 5 8 6 5 2 5 10 13 15 14 10 12 14 13 12 12 12 12 11 12 15 21 23 20 12 8 13 17 15 13 10
2 3 3 2 1 2 2 2 2 1 2 2 2 1 1 1 3 2 6 5 1 4 4 2 2 1 4 10 13 18 17 12 12 13 12 11 11 10 11 12 10 11 14 19 19 20 19 13 12 14 15 16 16 15
Wind_Direction
259 235 221 224 227 226 226 228 225 227 231 247 266 290 316 331 338 339 283 313 263 214 283 289 330 8 356 59 103 283 45 355 28 64 86 282 86 335 46 4 4 106 72 25 357 88 284 334 348 69 247 290 271 310
255 245 232 224 224 224 222 226 223 224 229 242 256 277 306 324 334 341 283 349 309 185 248 298 289 276 252 209 143 17 146 176 195 92 43 74 26 25 131 343 351 34 159 152 111 192 196 288 87 261 270 280 303 296
258 255 241 231 227 224 222 222 222 222 223 234 248 266 295 313 325 336 306 336 317 23 306 355 285 271 244 256 308 112 297 199 63 160 146 141 52 125 69 253 133 333 135 95 99 204 217 243 266 288 286 276 305 326
272 257 246 234 230 224 221 223 220 219 219 225 240 256 284 300 311 312 312 320 307 82 120 283 355 244 223 191 107 75 134 79 95 73 97 119 153 154 197 182 113 214 87 136 14 329 67 261 262 306 307 313 315 320
294 255 253 244 234 226 220 219 217 214 215 220 231 245 273 291 297 296 288 242 295 184 238 282 316 281 178 154 114 115 86 74 58 52 67 228 206 89 4 101 46 276 162 138 208 222 170 259 312 299 293 346 47 330
322 270 250 244 238 226 218 216 214 211 210 215 224 241 267 290 303 311 336 203 150 207 103 322 302 294 173 169 99 111 88 92 88 118 225 289 269 102 90 95 257 232 201 170 192 185 194 271 280 238 212 261 300 301
324 309 261 241 232 220 215 211 207 205 205 209 221 242 264 284 292 221 222 133 196 329 120 317 333 306 177 77 29 60 44 80 103 97 357 176 330 69 89 153 231 211 204 200 169 120 280 210 241 249 251 216 246 265
327 315 269 236 226 213 209 207 199 196 193 200 220 248 267 277 282 278 270 221 223 207 83 135 273 352 99 45 353 9 70 24 14 155 15 109 1 36 67 301 313 275 80 286 226 233 72 354 291 282 299 270 271 268
304 312 272 227 221 209 205 201 193 185 182 190 218 263 279 229 223 229 158 143 175 185 164 115 151 222 358 28 81 24 58 43 303 80 277 79 350 41 266 287 283 280 201 255 220 239 272 274 273 286 341 332 316 308
291 292 266 235 216 204 200 193 183 170 169 181 210 223 241 209 170 144 110 35 12 335 49 192 158 255 97 40 341 73 20 130 69 269 69 69 319 255 270 280 288 291 274 184 117 214 241 266 261 228 140 95 350 14
274 264 259 227 209 200 196 185 164 154 167 191 200 223 329 141 168 43 145 144 204 242 179 232 182 173 299 120 182 190 164 17 76 274 96 46 272 251 338 321 337 330 322 31 87 82 2 199 165 154 144 91 83 63
269 250 254 222 207 197 187 169 166 170 189 192 202 244 130 118 78 162 196 187 190 212 198 165 207 189 249 123 102 336 99 49 201 249 77 122 253 299 336 313 329 348 3 29 34 60 87 122 137 146 153 81 44 43
269 268 248 202 198 184 176 163 172 188 169 174 190 169 135 188 89 177 179 214 216 201 186 158 142 158 47 53 65 83 83 210 95 58 195 213 257 289 304 332 344 12 17 22 30 59 72 79 92 134 116 110 88 65
285 254 194 181 179 179 165 166 172 177 196 203 169 134 188 194 217 197 179 185 231 145 144 130 94 128 100 68 143 101 208 100 80 156 223 231 247 275 298 306 356 351 27 48 24 21 59 63 70 77 101 121 105 85
265 172 170 167 169 167 160 170 170 168 208 214 183 178 200 220 232 228 210 285 241 159 126 82 54 83 22 95 35 100 114 208 186 202 221 224 247 283 306 352 10 7 25 46 20 344 37 93 96 78 84 101 102 90
90 124 139 145 146 147 157 157 142 344 283 260 229 242 221 119 306 340 193 228 222 129 85 53 80 61 51 104 121 101 156 184 210 205 217 189 207 245 335 316 344 346 7 342 332 324 23 52 92 97 98 103 105 100
89 80 128 134 143 134 135 141 214 237 323 299 267 237 168 102 154 217 153 232 201 75 95 106 77 140 105 90 120 188 182 193 195 201 203 190 175 218 252 292 44 4 1 345 334 345 50 84 81 73 72 75 70 78
114 131 136 135 131 123 137 307 306 294 269 281 322 308 20 89 127 58 304 322 76 97 89 118 116 77 141 154 234 243 205 281 255 223 196 213 214 255 222 168 6 347 328 332 339 78 118 84 64 55 84 56 68 67
131 129 134 133 121 115 167 181 213 329 237 252 267 336 67 80 32 46 48 46 82 107 100 55 85 142 217 222 208 165 205 179 193 220 218 229 215 204 161 24 358 354 303 249 177 138 97 65 81 89 132 97 88 97
128 139 134 108 68 119 92 344 281 101 315 312 18 24 72 81 329 25 38 32 58 64 52 81 186 207 189 232 189 162 164 187 178 130 142 151 176 169 182 342 331 341 328 80 104 134 113 86 42 71 104 103 123 103
143 174 181 234 268 202 175 172 165 181 279 72 320 55 22 20 36 33 20 350 56 77 100 219 197 150 164 283 139 176 183 83 135 188 184 174 184 196 218 238 245 260 79 179 176 180 239 175 145 181 179 171 97 144
190 199 191 204 250 85 70 18 83 323 54 330 25 44 45 42 8 359 313 53 66 226 192 172 187 154 158 190 195 195 174 175 184 168 147 142 119 176 245 237 196 170 181 200 188 196 183 180 181 175 169 171 193 207
71 96 92 26 64 44 314 10 51 7 65 350 19 45 17 13 282 344 48 255 263 267 213 130 144 173 167 263 171 126 106 187 160 185 192 191 190 183 212 209 182 168 174 205 192 180 170 167 168 169 217 187 250 282
21 55 41 50 56 50 38 24 23 18 38 38 49 69 36 250 342 56 61 283 270 297 76 88 127 77 42 88 225 262 260 257 215 206 206 184 207 243 197 167 164 188 154 136 138 152 171 191 210 230 247 262 260 252
58 345 63 17 14 61 44 24 8 38 86 91 92 336 272 64 81 74 223 278 308 347 28 98 158 183 171 214 251 240 235 252 214 217 214 207 220 171 157 174 198 200 185 188 209 231 249 265 274 276 303 272 264 289
67 7 72 27 20 62 2 39 34 22 59 79 250 263 90 111 101 222 250 245 192 191 193 171 172 171 265 207 206 223 220 192 173 156 165 156 167 163 152 171 284 254 228 243 258 272 268 273 277 284 273 257 266 264
67 61 53 9 118 126 114 263 309 330 251 208 219 176 159 124 123 254 280 246 201 225 205 202 215 214 214 217 231 201 173 189 152 95 331 316 309 280 255 242 231 242 238 229 239 242 259 278 295 289 273 288 227 207
224 71 78 182 276 174 303 207 206 232 9 343 175 49 49 84 207 238 220 274 198 177 175 197 256 269 214 229 233 208 191 221 253 287 291 283 279 270 269 264 276 259 244 239 248 250 272 276 268 279 275 247 231 234
35 327 58 24 94 168 208 342 71 328 286 65 87 63 225 240 235 217 216 205 199 186 178 260 325 302 205 183 149 168 177 248 338 311 285 291 311 302 321 282 256 238 241 250 264 249 248 265 242 234 239 246 235 252
349 353 57 23 46 45 323 124 225 278 354 106 153 14 13 327 270 288 265 261 234 233 278 294 293 249 196 181 302 313 263 269 272 244 224 225 239 275 259 270 263 263 263 259 257 249 239 253 255 253 254 255 238 245
341 17 34 16 275 260 242 286 340 27 35 39 23 106 230 275 298 285 298 279 253 286 278 300 135 173 166 160 193 26 342 329 308 316 267 262 295 301 248 290 280 249 252 252 255 249 252 260 268 265 257 260 267 265
141 223 56 283 278 250 72 91 78 57 352 35 34 347 352 5 332 297 350 317 298 161 149 148 131 163 195 207 259 299 304 302 307 287 277 295 307 305 291 277 272 269 261 258 251 249 239 221 232 241 245 265 260 244
191 181 220 266 213 151 132 87 37 81 204 209 163 221 285 285 41 311 353 359 318 205 184 134 130 30 315 311 299 297 292 288 290 285 284 286 282 287 296 302 298 305 268 246 237 231 221 230 216 237 242 237 231 229